SCP
0 0 0 0 0 0 0 0 0 0 0 0 0 0 0 0 0 0 0 0 0 0 0 0 0 0 0 0 0 0 0 0 0 0 0 0 0 0 0 0 0 0 0 0 0 0 0 0 0
0 0 0 0 0 0 0 0 0 0 0 0 0 0 0 0 0 0 0 0 0 0 0 0 0 0 0 0 0 0 0 0 0 0 0 0 0 0 0 0 0 0 0 0 0 0 0 0 0
0 0 0 0 0 0 0 0 0 0 0 0 0 0 0 0 0 0 0 0 0 0 0 0 0 0 0 0 0 0 0 0 0 0 0 0 0 0 0 0 0 0 0 0 0 0 0 0 0
0 0 0 0 0 0 0 0 0 0 0 0 0 0 0 0 0 0 0 0 0 0 0 0 0 0 0 0 0 0 0 0 0 0 0 0 0 0 0 0 0 0 0 0 0 0 0 0 0
0 0 0 0 0 0 0 0 0 0 0 0 0 0 0 0 0 0 0 0 0 0 0 0 0 0 0 0 0 0 0 0 0 0 0 0 0 0 0 0 0 0 0 0 0 0 0 0 0
0 0 0 0 0 0 0 0 0 0 0 0 0 0 0 0 0 0 0 0 0 0 0 0 0 0 0 0 0 0 0 0 0 0 0 0 0 0 0 0 0 0 0 0 0 0 0 0 0
0 0 0 0 0 0 0 0 0 0 0 0 0 0 0 0 0 0 0 0 0 0 0 0 0 0 0 0 0 0 0 0 0 0 0 0 0 0 0 0 0 0 0 0 0 0 0 0 0
0 0 0 0 0 0 0 0 0 0 0 0 0 0 0 0 0 0 0 0 0 0 0 0 0 0 0 0 0 0 0 0 0 0 0 0 0 0 0 0 0 0 0 0 0 0 0 0 0
0 0 0 0 0 0 0 0 0 0 0 0 0 0 0 0 0 0 0 0 0 0 0 0 0 0 0 0 0 0 0 0 0 0 0 0 0 0 0 0 0 0 0 0 0 0 0 0 0
0 0 0 0 0 0 0 0 0 0 0 0 0 0 0 0 0 0 0 0 0 0 0 0 0 0 0 0 0 0 0 0 0 0 0 0 0 0 0 0 0 0 0 0 0 0 0 0 0
0 0 0 0 0 0 0 0 0 0 0 0 0 0 0 0 0 0 0 0 0 0 0 0 0 0 0 0 0 0 0 0 0 0 0 0 0 0 0 0 0 0 0 0 0 0 0 0 0
0 0 0 0 0 0 0 0 0 0 0 0 0 0 0 0 0 0 0 0 0 0 0 0 0 0 0 0 0 0 0 0 0 0 0 0 0 0 0 0 0 0 0 0 0 0 0 0 0
0 0 0 0 0 0 0 0 0 0 0 0 0 0 0 0 0 0 0 0 0 0 0 0 0 0 0 0 0 0 0 0 0 0 0 0 0 0 0 0 0 0 0 0 0 0 0 0 0
0 0 0 0 0 0 0 0 0 0 0 0 0 0 0 0 0 0 0 0 0 0 0 0 0 0 0 0 0 0 0 0 0 0 0 0 0 0 0 0 0 0 0 0 0 0 0 0 0
0 0 0 0 0 0 0 0 0 0 0 0 0 0 0 0 0 0 0 0 0 0 0 0 0 0 0 0 0 0 0 0 0 0 0 0 0 0 0 0 0 0 0 0 0 0 0 0 0
0 0 0 0 0 0 0 0 0 0 0 0 0 0 0 0 0 0 0 0 0 0 0 0 0 0 0 0 0 0 0 0 0 0 0 0 0 0 0 0 0 0 0 0 0 0 0 0 0
0 0 0 0 0 0 0 0 0 0 0 0 0 0 0 0 0 0 0 0 0 0 0 0 0 0 0 0 0 0 0 0 0 0 0 0 0 0 0 0 0 0 0 0 0 0 0 0 0
0 0 0 0 0 0 0 0 0 0 0 0 0 0 0 0 0 0 0 0 0 0 0 0 0 0 0 0 0 0 0 0 0 0 0 0 0 0 0 0 0 0 0 0 0 0 0 0 0
0 0 0 0 0 0 0 0 0 0 0 0 0 0 0 0 0 0 0 0 0 0 0 0 0 0 0 0 0 0 0 0 0 0 0 0 0 0 0 0 0 0 0 0 0 0 0 0 0
0 0 0 0 0 0 0 0 0 0 0 0 0 0 0 0 0 0 0 0 0 0 0 0 0 0 0 0 0 0 0 0 0 0 0 0 0 0 0 0 0 0 0 0 0 0 0 0 0
0 0 0 0 0 0 0 0 0 0 0 0 0 0 0 0 0 0 0 0 0 0 0 0 0 0 0 0 0 0 0 0 0 0 0 0 0 0 0 0 0 0 0 0 0 0 0 0 0
0 0 0 0 0 0 0 0 0 0 0 0 0 0 0 0 0 0 0 0 0 0 0 0 0 0 0 0 0 0 0 0 0 0 0 0 0 0 0 0 0 0 0 0 0 0 0 0 0
0 0 0 0 0 0 0 0 0 0 0 0 0 0 0 0 0 0 0 0 0 0 0 0 0 0 0 0 0 0 0 0 0 0 0 0 0 0 0 0 0 0 0 0 0 0 0 0 0
0 0 0 0 0 0 0 0 0 0 0 0 0 0 0 0 0 0 0 0 0 0 0 0 0 0 0 0 0 0 0 0 0 0 0 0 0 0 0 0 0 0 0 0 0 0 0 0 0
0 0 0 0 0 0 0 0 0 0 0 0 0 0 0 0 0 0 0 0 0 0 0 0 0 0 0 0 0 0 0 0 0 0 0 0 0 0 0 0 0 0 0 0 0 0 0 0 0
0 0 0 0 0 0 0 0 0 0 0 0 0 0 0 0 0 0 0 0 0 0 0 0 0 0 0 0 0 0 0 0 0 0 0 0 0 0 0 0 0 0 0 0 0 0 0 0 0
0 0 0 0 0 0 0 0 0 0 0 0 0 0 0 0 0 0 0 0 0 0 0 0 0 0 0 0 0 0 0 0 0 0 0 0 0 0 0 0 0 0 0 0 0 0 0 0 0
0 0 0 0 0 0 0 0 0 0 0 0 0 0 0 0 0 0 0 0 0 0 0 0 0 0 0 0 0 0 0 0 0 0 0 0 0 0 0 0 0 0 0 0 0 0 0 0 0
0 0 0 0 0 0 0 0 0 0 0 0 0 0 0 0 0 0 0 0 0 0 0 0 0 0 0 0 0 0 0 0 0 0 0 0 0 0 0 0 0 0 0 0 0 0 0 0 0
0 0 0 0 0 0 0 0 0 0 0 0 0 0 0 0 0 0 0 0 0 0 0 0 0 0 0 0 0 0 0 0 0 0 0 0 0 0 0 0 0 0 0 0 0 0 0 0 0
Wind_Speed
6 3 2 4 7 4 4 6 4 2 2 2 2 6 7 5 5 4 3 7 11 8 5 6 9 11 12 12 12 12 13 13 13 13 13 12 12 11 11 11 10 10 11 11 11 12 12 12 12
3 2 5 6 5 1 6 5 5 3 5 4 4 5 5 2 1 6 5 8 11 9 6 6 10 11 12 12 12 11 12 12 12 12 12 12 11 11 11 11 11 11 11 11 11 11 11 11 12
3 2 5 5 3 5 5 4 6 3 3 4 3 3 5 6 5 8 6 11 10 8 6 7 11 12 12 12 12 11 11 12 12 12 12 12 12 12 12 12 11 11 11 11 11 11 11 11 11
4 5 6 4 5 7 7 6 6 5 1 2 5 3 1 2 7 7 8 11 10 7 6 7 13 13 13 13 13 12 12 12 13 12 12 12 12 12 12 12 12 12 12 11 11 11 11 11 12
4 5 3 2 6 7 6 5 8 6 6 3 5 5 3 2 4 8 11 11 11 7 6 7 12 14 14 14 14 14 13 14 14 14 13 13 13 12 12 12 12 12 12 12 12 12 11 12 13
5 5 3 4 7 6 4 6 6 5 5 4 6 4 4 1 7 9 9 9 9 8 6 6 11 12 14 15 15 14 14 14 15 15 14 14 13 13 12 12 12 12 12 12 12 12 12 13 13
5 4 3 5 5 5 4 6 6 7 6 7 8 5 3 4 6 8 8 8 8 7 6 5 5 8 12 13 14 14 14 14 15 15 15 14 14 13 12 12 12 12 12 12 12 13 13 13 13
5 4 3 4 5 6 3 5 4 7 6 4 9 8 7 9 8 7 7 7 7 7 7 6 5 4 5 7 12 13 14 14 14 14 14 14 13 12 12 10 11 12 12 12 12 12 12 12 13
4 3 4 6 4 4 2 2 2 2 2 2 4 4 2 11 12 9 6 5 7 8 8 8 7 6 5 5 8 10 12 13 13 11 13 11 6 6 6 8 11 11 11 11 11 12 12 11 12
4 4 9 6 3 2 3 4 4 2 3 4 3 0 3 11 15 15 13 13 14 14 12 10 9 8 7 6 5 4 4 6 5 5 6 5 5 4 5 9 10 10 9 10 11 11 10 8 4
6 8 6 6 4 3 3 4 4 5 9 11 11 8 8 10 14 16 16 15 17 13 12 12 12 10 9 5 5 3 3 3 4 6 6 5 4 4 4 3 4 4 6 4 5 5 4 4 3
6 9 8 6 3 4 4 4 4 10 15 10 11 9 11 15 19 20 20 18 13 10 14 13 13 12 10 7 6 5 4 4 4 5 7 5 4 4 4 3 3 2 2 2 3 2 4 4 5
7 7 6 6 6 5 4 7 6 12 13 7 5 9 15 17 18 18 16 12 11 13 14 14 14 14 12 9 6 7 6 5 5 5 6 7 5 5 4 3 3 3 2 2 3 3 4 4 4
6 5 6 6 6 4 6 8 5 19 8 9 10 11 15 19 20 16 14 15 16 18 17 14 15 14 12 10 8 7 7 6 5 5 6 7 6 5 5 4 4 3 2 2 2 3 3 3 3
3 6 10 8 7 6 3 11 13 22 4 9 12 12 14 17 17 20 21 21 20 17 15 16 15 14 14 13 10 7 7 6 6 6 6 7 6 6 5 5 4 3 3 3 3 3 3 2 3
3 4 9 8 4 5 9 17 20 10 7 13 13 12 12 15 16 20 19 18 16 14 15 17 16 16 16 13 11 8 7 7 6 6 6 7 7 7 6 5 4 4 3 3 3 2 2 2 3
2 6 10 12 6 6 9 15 16 4 8 12 12 12 13 13 15 18 18 18 17 18 18 19 19 19 17 14 10 8 8 8 7 6 6 7 8 8 6 5 4 5 3 3 2 2 2 2 3
11 9 8 12 6 7 10 16 17 8 6 10 11 11 12 15 20 18 17 18 17 17 17 19 18 17 15 11 7 6 7 7 6 7 7 8 7 8 6 5 5 5 4 3 2 2 2 1 2
9 9 14 16 7 8 14 19 21 16 10 12 13 13 15 18 20 13 12 14 13 14 17 19 20 18 15 12 12 10 10 8 7 8 9 10 8 8 7 5 6 5 4 5 4 3 3 2 2
9 12 17 15 11 9 14 21 17 15 14 15 16 17 19 18 16 16 12 12 17 19 20 20 21 20 20 15 12 6 6 6 6 6 8 10 10 10 8 7 6 6 5 5 4 4 3 2 2
13 15 20 16 9 6 10 15 10 13 14 14 15 18 20 21 21 19 13 14 16 19 22 21 22 21 19 14 9 6 4 3 5 7 9 11 11 11 9 9 7 7 6 6 5 5 5 4 1
17 14 17 14 10 10 6 23 10 13 15 16 20 20 22 22 21 19 15 13 18 21 19 19 20 18 17 16 16 16 13 14 13 8 8 9 11 11 10 9 8 7 6 6 6 5 4 5 4
16 8 9 8 8 9 4 15 14 10 12 16 20 21 22 22 21 21 18 17 17 16 16 17 17 17 17 18 20 18 15 11 5 5 10 10 9 10 11 10 9 8 6 7 7 6 5 4 5
6 1 2 3 1 13 10 13 25 12 15 13 18 19 20 21 19 19 15 10 10 11 12 14 17 18 18 20 19 20 19 13 11 11 12 10 7 8 11 11 10 9 7 8 7 6 7 5 5
5 5 3 5 3 14 8 12 18 9 12 17 20 20 20 18 17 16 12 10 11 14 16 16 18 19 19 20 20 21 20 18 18 16 14 12 10 11 15 13 11 10 8 8 7 7 7 7 6
9 12 11 9 10 11 5 15 14 8 10 10 12 14 15 15 12 10 7 10 12 15 16 17 19 19 20 21 21 18 17 14 13 14 13 14 13 12 13 14 12 11 10 10 8 6 6 6 6
7 10 11 9 8 9 11 12 14 8 10 13 16 15 15 12 8 7 7 9 11 15 18 20 20 18 19 20 18 16 17 16 15 12 11 9 8 8 12 13 13 12 12 11 9 7 7 7 6
7 6 4 7 8 11 11 14 18 15 12 13 11 11 11 10 9 9 8 9 11 12 13 13 15 18 16 16 16 14 15 16 12 10 13 12 10 10 12 13 13 12 12 11 10 7 7 7 6
6 5 8 7 7 9 11 13 16 13 9 9 11 11 10 10 10 10 9 8 8 7 9 12 13 13 13 15 15 14 14 13 12 12 13 12 12 13 15 15 14 14 13 12 10 9 9 9 7
10 13 12 12 15 10 11 14 24 16 13 13 15 15 12 10 10 9 8 6 7 9 11 13 14 15 16 16 15 15 12 12 14 15 14 14 15 15 15 15 15 14 14 13 12 12 11 10 10
Wind_Direction
326 347 64 53 48 40 271 255 212 149 122 135 121 122 134 146 161 185 164 146 143 144 141 136 132 127 122 120 117 113 109 106 103 101 99 97 94 91 86 79 72 69 65 60 55 49 42 35 28
332 16 56 58 78 320 269 250 191 186 169 150 112 106 108 171 166 140 159 157 147 143 143 144 139 134 131 125 119 116 112 108 106 106 104 102 99 95 89 83 76 71 67 62 56 50 43 35 28
326 50 79 73 135 206 251 230 199 212 186 152 112 102 164 184 183 176 178 149 141 139 144 152 147 143 139 135 130 125 121 117 115 112 109 105 101 97 92 87 81 75 70 64 57 50 44 37 30
51 47 56 77 243 235 235 230 196 158 160 133 133 138 228 193 178 181 149 142 137 141 146 157 153 150 147 143 138 134 131 126 122 117 113 108 104 99 95 90 85 80 74 68 62 55 49 43 37
60 73 61 311 259 252 243 197 173 173 183 179 144 167 227 278 165 149 146 145 142 145 150 161 158 156 153 149 145 141 137 133 128 124 119 114 109 104 100 95 89 84 78 71 66 60 55 50 44
55 66 100 251 260 262 235 177 180 179 189 189 157 172 235 177 155 155 149 145 145 147 152 160 160 160 158 153 149 146 143 139 135 130 125 120 114 109 104 99 95 90 82 75 69 63 58 52 45
102 109 198 234 262 272 226 173 184 181 190 200 176 182 228 207 191 153 138 137 143 146 145 146 155 161 160 154 152 150 147 143 139 134 128 122 117 111 106 102 99 93 85 78 73 66 59 52 46
124 112 248 251 248 258 218 175 198 177 205 204 161 180 226 204 178 142 127 138 151 156 157 154 152 150 150 153 152 151 150 148 144 137 131 125 119 114 107 101 100 94 88 83 77 68 61 51 45
92 87 239 238 237 263 226 206 207 183 159 180 194 202 248 143 144 140 140 161 176 180 179 168 165 162 156 154 157 153 154 155 148 143 140 127 115 110 104 103 100 95 90 84 77 67 60 52 41
107 182 232 232 240 243 224 227 220 198 216 233 234 41 92 140 162 173 182 187 191 193 189 180 174 172 168 169 153 153 154 154 148 146 140 136 136 138 123 109 104 95 86 80 74 66 55 49 33
177 207 238 257 257 220 221 235 215 193 233 220 214 198 156 167 181 191 198 198 199 191 188 185 181 177 176 172 166 169 163 163 162 159 152 143 132 127 113 104 101 94 84 71 64 56 44 36 27
203 235 228 251 246 225 228 235 219 210 228 218 213 177 171 184 194 200 204 206 197 189 195 187 182 180 182 176 176 175 173 175 175 171 160 148 144 143 144 140 139 124 115 98 74 58 42 32 21
228 256 250 254 251 242 241 241 248 250 243 241 219 170 186 196 205 211 213 210 198 201 197 190 183 183 182 179 183 181 184 183 179 173 169 161 157 158 155 153 149 144 132 110 90 66 47 31 17
247 253 277 275 257 244 235 262 247 260 238 231 223 208 204 206 209 211 213 211 207 207 201 191 189 186 180 183 187 183 184 181 179 179 176 168 162 160 158 154 153 152 146 130 112 92 68 39 12
307 304 299 265 236 238 190 276 238 251 226 238 237 227 215 218 214 213 213 213 209 207 197 192 191 185 185 186 187 182 182 179 183 184 177 170 165 162 157 155 158 162 152 133 112 96 78 50 11
334 302 281 271 219 199 160 252 260 253 216 245 247 242 232 227 220 222 219 216 209 199 194 194 192 189 190 187 184 182 181 181 184 181 176 173 168 163 158 159 164 163 149 138 127 105 84 41 3
286 248 254 280 231 180 189 244 266 263 210 244 251 246 241 242 236 229 221 215 208 201 194 192 192 190 190 185 180 179 177 183 181 178 180 178 172 167 162 164 164 158 146 143 136 102 97 39 349
230 227 245 256 247 176 213 243 261 267 244 253 261 258 249 246 245 234 221 215 209 202 195 192 191 188 182 176 169 171 179 184 180 183 186 180 176 169 162 162 164 156 143 141 130 118 93 61 331
222 230 246 255 245 199 228 242 253 260 255 255 257 256 252 250 251 245 222 209 202 198 194 191 189 185 177 179 182 184 191 188 188 190 187 182 177 172 167 166 164 161 158 161 154 135 106 60 360
248 256 260 270 254 226 245 249 251 258 252 244 246 250 250 251 257 252 231 204 200 199 197 193 191 185 186 188 185 177 168 182 188 187 187 185 180 177 177 171 170 167 158 160 163 155 135 98 44
230 232 248 252 280 273 286 271 234 249 250 252 248 246 248 246 248 252 238 211 203 201 198 194 192 188 187 175 161 140 135 131 178 196 194 191 185 182 178 175 171 172 167 169 171 168 150 140 106
245 228 242 254 264 264 238 283 238 226 242 246 249 248 247 247 245 247 241 217 206 206 197 194 189 185 181 171 176 176 187 196 198 189 185 185 187 184 179 175 175 174 172 171 175 173 163 143 144
236 235 236 246 251 274 194 271 271 194 229 242 246 246 246 245 243 242 237 223 211 199 190 190 183 182 178 180 184 188 198 200 171 166 178 186 189 186 181 177 177 178 176 175 174 167 167 156 150
233 127 356 39 57 269 202 230 275 177 212 230 241 246 245 245 243 242 238 216 199 184 181 180 181 184 182 185 187 193 198 188 179 186 189 190 187 188 187 181 181 181 179 179 177 171 171 167 156
161 160 314 308 257 253 188 219 262 200 205 217 232 242 245 244 242 243 232 202 189 184 184 183 184 188 187 190 194 199 200 194 197 195 195 189 188 194 193 186 185 184 182 177 172 172 176 172 168
197 181 197 220 238 264 213 235 256 235 248 260 259 257 259 258 257 256 231 201 195 191 187 187 191 192 190 195 201 201 198 199 204 200 197 198 201 199 186 186 184 180 177 178 174 173 177 176 173
183 207 213 216 255 273 263 266 289 260 265 260 257 259 264 274 284 262 232 211 201 195 194 194 195 196 196 199 199 200 199 202 204 196 195 198 196 182 182 184 181 178 178 177 173 179 178 175 177
190 187 145 179 208 238 254 267 270 276 257 257 265 270 273 276 270 259 241 222 212 206 201 197 200 202 199 197 199 201 202 204 198 184 195 196 185 176 177 183 181 178 178 176 176 178 177 176 178
186 198 207 213 206 220 240 250 257 257 251 256 265 269 272 273 265 255 245 234 222 210 201 201 203 202 199 199 201 201 199 195 189 193 196 189 180 178 180 182 181 180 179 177 179 180 179 183 181
217 218 207 222 237 230 245 248 261 260 258 260 268 278 282 276 272 265 255 240 221 216 212 210 208 207 208 204 201 203 195 187 193 200 194 183 181 181 180 179 180 181 180 178 181 183 185 186 186